Time,TemperatureF,DewpointF,PressureIn,WindDirection,WindDirectionDegrees,WindSpeedMPH,WindSpeedGustMPH,Humidity,HourlyPrecipIn,Conditions,Clouds,dailyrainin,SoftwareType,DateUTC
2013-08-28 00:00:00,78.6,73.4,29.73,South,178,0.0,0.0,84,0.00,,,0.00,Wunderground v.1.13,2013-08-28 05:00:00,
2013-08-28 00:05:00,78.5,73.6,29.73,South,178,0.0,4.0,85,0.00,,,0.00,Wunderground v.1.13,2013-08-28 05:05:00,
2013-08-28 00:15:00,78.6,73.7,29.72,South,178,0.0,4.0,85,0.00,,,0.00,Wunderground v.1.13,2013-08-28 05:15:00,
2013-08-28 00:25:00,78.6,73.7,29.72,South,178,0.0,4.0,85,0.00,,,0.00,Wunderground v.1.13,2013-08-28 05:25:00,
2013-08-28 00:35:00,78.5,73.6,29.71,South,178,0.0,0.0,85,0.00,,,0.00,Wunderground v.1.13,2013-08-28 05:35:00,
2013-08-28 00:45:00,78.3,73.8,29.73,North,11,1.0,4.0,86,0.00,,,0.00,Wunderground v.1.13,2013-08-28 05:45:00,
2013-08-28 00:50:00,78.1,73.6,29.73,NW,325,2.0,2.0,86,0.00,,,0.00,Wunderground v.1.13,2013-08-28 05:50:00,
2013-08-28 01:00:00,77.6,73.1,29.72,NW,325,0.0,0.0,86,0.00,,,0.00,Wunderground v.1.13,2013-08-28 06:00:00,
2013-08-28 01:05:00,77.4,72.9,29.72,NW,325,0.0,9.0,86,0.00,,,0.00,Wunderground v.1.13,2013-08-28 06:05:00,
2013-08-28 01:15:00,77.0,72.5,29.73,East,80,0.0,9.0,86,0.00,,,0.00,Wunderground v.1.13,2013-08-28 06:15:00,
2013-08-28 01:20:00,76.8,72.3,29.73,NE,53,0.0,9.0,86,0.00,,,0.00,Wunderground v.1.13,2013-08-28 06:20:00,
2013-08-28 01:25:00,76.7,72.2,29.73,NE,52,0.0,9.0,86,0.00,,,0.00,Wunderground v.1.13,2013-08-28 06:25:00,
2013-08-28 01:30:00,76.5,72.3,29.72,NE,52,0.0,9.0,87,0.00,,,0.00,Wunderground v.1.13,2013-08-28 06:30:00,
2013-08-28 01:35:00,76.3,72.1,29.72,NE,51,0.0,6.0,87,0.00,,,0.00,Wunderground v.1.13,2013-08-28 06:35:00,
2013-08-28 01:40:00,76.1,71.9,29.72,NE,51,0.0,6.0,87,0.00,,,0.00,Wunderground v.1.13,2013-08-28 06:40:00,
2013-08-28 01:50:00,75.8,71.7,29.73,North,351,0.0,6.0,87,0.00,,,0.00,Wunderground v.1.13,2013-08-28 06:50:00,
2013-08-28 01:55:00,75.6,71.5,29.73,North,351,0.0,6.0,87,0.00,,,0.00,Wunderground v.1.13,2013-08-28 06:55:00,
2013-08-28 02:05:00,75.3,71.5,29.73,North,351,0.0,1.0,88,0.00,,,0.00,Wunderground v.1.13,2013-08-28 07:05:00,
2013-08-28 02:15:00,75.1,71.6,29.73,NW,315,0.0,1.0,89,0.00,,,0.00,Wunderground v.1.13,2013-08-28 07:15:00,
2013-08-28 02:20:00,74.9,71.8,29.73,NW,325,0.0,1.0,90,0.00,,,0.00,Wunderground v.1.13,2013-08-28 07:20:00,
2013-08-28 02:25:00,74.9,71.8,29.73,NNW,343,1.0,1.0,90,0.00,,,0.00,Wunderground v.1.13,2013-08-28 07:25:00,
2013-08-28 02:35:00,74.7,71.9,29.73,NNE,25,0.0,6.0,91,0.00,,,0.00,Wunderground v.1.13,2013-08-28 07:35:00,
2013-08-28 02:40:00,74.7,71.9,29.73,NNE,25,0.0,6.0,91,0.00,,,0.00,Wunderground v.1.13,2013-08-28 07:40:00,
2013-08-28 02:45:00,74.7,71.9,29.73,NNE,25,0.0,6.0,91,0.00,,,0.00,Wunderground v.1.13,2013-08-28 07:45:00,
2013-08-28 02:55:00,74.9,72.4,29.73,NE,34,0.0,6.0,92,0.00,,,0.00,Wunderground v.1.13,2013-08-28 07:55:00,
2013-08-28 03:00:00,74.9,72.4,29.74,North,5,1.0,1.0,92,0.00,,,0.00,Wunderground v.1.13,2013-08-28 08:00:00,
2013-08-28 03:05:00,74.9,72.4,29.74,NNE,20,1.0,8.0,92,0.00,,,0.00,Wunderground v.1.13,2013-08-28 08:05:00,
2013-08-28 03:15:00,74.7,72.2,29.75,North,5,4.0,8.0,92,0.00,,,0.00,Wunderground v.1.13,2013-08-28 08:15:00,
2013-08-28 03:20:00,74.6,72.1,29.75,NNW,347,3.0,8.0,92,0.00,,,0.00,Wunderground v.1.13,2013-08-28 08:20:00,
2013-08-28 03:25:00,74.6,72.1,29.75,NNW,344,3.0,3.0,92,0.00,,,0.00,Wunderground v.1.13,2013-08-28 08:25:00,
2013-08-28 03:35:00,74.4,71.9,29.75,NNE,30,1.0,1.0,92,0.00,,,0.00,Wunderground v.1.13,2013-08-28 08:35:00,
2013-08-28 03:45:00,74.4,71.9,29.76,NNE,26,0.0,11.0,92,0.00,,,0.00,Wunderground v.1.13,2013-08-28 08:45:00,
2013-08-28 03:50:00,74.4,71.9,29.76,NNE,26,0.0,11.0,92,0.00,,,0.00,Wunderground v.1.13,2013-08-28 08:50:00,
2013-08-28 04:00:00,74.2,71.7,29.76,NE,34,0.0,11.0,92,0.00,,,0.00,Wunderground v.1.13,2013-08-28 09:00:00,
2013-08-28 04:05:00,74.2,71.7,29.76,NE,34,0.0,9.0,92,0.00,,,0.00,Wunderground v.1.13,2013-08-28 09:05:00,
2013-08-28 04:15:00,74.0,71.5,29.77,NNE,32,0.0,9.0,92,0.00,,,0.00,Wunderground v.1.13,2013-08-28 09:15:00,
2013-08-28 04:20:00,74.0,71.5,29.77,NNE,25,1.0,1.0,92,0.00,,,0.00,Wunderground v.1.13,2013-08-28 09:20:00,
2013-08-28 04:30:00,74.0,71.5,29.78,NNE,26,0.0,6.0,92,0.00,,,0.00,Wunderground v.1.13,2013-08-28 09:30:00,
2013-08-28 04:35:00,74.0,71.5,29.78,NNE,26,0.0,6.0,92,0.00,,,0.00,Wunderground v.1.13,2013-08-28 09:35:00,
2013-08-28 04:45:00,73.7,70.9,29.78,NNE,17,1.0,1.0,91,0.00,,,0.00,Wunderground v.1.13,2013-08-28 09:45:00,
2013-08-28 04:50:00,73.7,70.9,29.78,North,11,1.0,1.0,91,0.00,,,0.00,Wunderground v.1.13,2013-08-28 09:50:00,
2013-08-28 05:00:00,73.7,70.9,29.79,NNE,33,0.0,6.0,91,0.00,,,0.00,Wunderground v.1.13,2013-08-28 10:00:00,
2013-08-28 05:05:00,73.7,70.9,29.79,NNE,33,0.0,7.0,91,0.00,,,0.00,Wunderground v.1.13,2013-08-28 10:05:00,
2013-08-28 05:15:00,73.5,70.7,29.80,NNE,19,1.0,1.0,91,0.00,,,0.00,Wunderground v.1.13,2013-08-28 10:15:00,
2013-08-28 05:20:00,73.5,70.7,29.80,NNE,17,1.0,1.0,91,0.00,,,0.00,Wunderground v.1.13,2013-08-28 10:20:00,
2013-08-28 05:25:00,73.3,70.5,29.80,NNE,16,0.0,7.0,91,0.00,,,0.00,Wunderground v.1.13,2013-08-28 10:25:00,
2013-08-28 05:35:00,73.2,70.4,29.80,NNE,30,1.0,1.0,91,0.00,,,0.00,Wunderground v.1.13,2013-08-28 10:35:00,
2013-08-28 05:40:00,73.0,70.2,29.80,NNE,30,0.0,7.0,91,0.00,,,0.00,Wunderground v.1.13,2013-08-28 10:40:00,
2013-08-28 05:45:00,72.8,70.0,29.80,NNE,30,0.0,7.0,91,0.00,,,0.00,Wunderground v.1.13,2013-08-28 10:45:00,
2013-08-28 05:55:00,72.7,70.2,29.80,NNE,30,0.0,7.0,92,0.00,,,0.00,Wunderground v.1.13,2013-08-28 10:55:00,
2013-08-28 06:00:00,72.7,70.2,29.81,NNE,30,0.0,7.0,92,0.00,,,0.00,Wunderground v.1.13,2013-08-28 11:00:00,
2013-08-28 06:05:00,72.5,69.7,29.81,NNE,21,0.0,8.0,91,0.00,,,0.00,Wunderground v.1.13,2013-08-28 11:05:00,
2013-08-28 06:15:00,72.7,69.9,29.82,NNE,28,0.0,8.0,91,0.00,,,0.00,Wunderground v.1.13,2013-08-28 11:15:00,
2013-08-28 06:25:00,72.7,69.9,29.82,NNE,28,0.0,8.0,91,0.00,,,0.00,Wunderground v.1.13,2013-08-28 11:25:00,
2013-08-28 06:30:00,72.7,69.9,29.83,NNE,28,0.0,8.0,91,0.00,,,0.00,Wunderground v.1.13,2013-08-28 11:30:00,
2013-08-28 06:40:00,72.7,69.9,29.83,NNE,18,0.0,5.0,91,0.00,,,0.00,Wunderground v.1.13,2013-08-28 11:40:00,
2013-08-28 06:45:00,72.5,69.7,29.83,North,5,0.0,5.0,91,0.00,,,0.00,Wunderground v.1.13,2013-08-28 11:45:00,
2013-08-28 06:50:00,72.5,69.7,29.83,North,5,0.0,5.0,91,0.00,,,0.00,Wunderground v.1.13,2013-08-28 11:50:00,
2013-08-28 07:00:00,72.5,69.7,29.84,North,350,0.0,5.0,91,0.00,,,0.00,Wunderground v.1.13,2013-08-28 12:00:00,
2013-08-28 07:05:00,72.3,69.5,29.84,North,350,0.0,6.0,91,0.00,,,0.00,Wunderground v.1.13,2013-08-28 12:05:00,
2013-08-28 07:15:00,72.3,69.5,29.85,North,360,0.0,6.0,91,0.00,,,0.00,Wunderground v.1.13,2013-08-28 12:15:00,
2013-08-28 07:20:00,72.3,69.5,29.85,North,360,0.0,6.0,91,0.00,,,0.00,Wunderground v.1.13,2013-08-28 12:20:00,
2013-08-28 07:25:00,72.3,69.2,29.85,North,355,0.0,6.0,90,0.00,,,0.00,Wunderground v.1.13,2013-08-28 12:25:00,
2013-08-28 07:35:00,72.3,69.2,29.85,North,360,0.0,7.0,90,0.00,,,0.00,Wunderground v.1.13,2013-08-28 12:35:00,
2013-08-28 07:45:00,72.3,69.2,29.85,NNE,19,1.0,7.0,90,0.00,,,0.00,Wunderground v.1.13,2013-08-28 12:45:00,
2013-08-28 07:55:00,72.1,68.7,29.85,NNE,15,2.0,2.0,89,0.00,,,0.00,Wunderground v.1.13,2013-08-28 12:55:00,
2013-08-28 08:00:00,72.1,68.7,29.86,North,9,2.0,2.0,89,0.00,,,0.00,Wunderground v.1.13,2013-08-28 13:00:00,
2013-08-28 08:05:00,72.1,68.3,29.86,North,5,1.0,1.0,88,0.00,,,0.00,Wunderground v.1.13,2013-08-28 13:05:00,
2013-08-28 08:15:00,72.3,68.5,29.86,NNE,15,2.0,2.0,88,0.00,,,0.00,Wunderground v.1.13,2013-08-28 13:15:00,
2013-08-28 08:25:00,72.5,68.4,29.86,NNE,27,1.0,8.0,87,0.00,,,0.00,Wunderground v.1.13,2013-08-28 13:25:00,
2013-08-28 08:30:00,72.5,68.1,29.86,NE,42,1.0,1.0,86,0.00,,,0.00,Wunderground v.1.13,2013-08-28 13:30:00,
2013-08-28 08:35:00,72.5,68.1,29.86,NE,43,1.0,1.0,86,0.00,,,0.00,Wunderground v.1.13,2013-08-28 13:35:00,
2013-08-28 08:45:00,72.8,68.0,29.86,NE,43,0.0,9.0,85,0.00,,,0.00,Wunderground v.1.13,2013-08-28 13:45:00,
2013-08-28 08:55:00,73.2,68.1,29.86,NE,38,0.0,9.0,84,0.00,,,0.00,Wunderground v.1.13,2013-08-28 13:55:00,
2013-08-28 09:00:00,73.3,68.2,29.87,NE,39,0.0,9.0,84,0.00,,,0.00,Wunderground v.1.13,2013-08-28 14:00:00,
2013-08-28 09:05:00,73.5,68.4,29.87,NE,39,0.0,7.0,84,0.00,,,0.00,Wunderground v.1.13,2013-08-28 14:05:00,
2013-08-28 09:15:00,73.7,68.6,29.87,NE,39,0.0,7.0,84,0.00,,,0.00,Wunderground v.1.13,2013-08-28 14:15:00,
2013-08-28 09:25:00,73.9,68.4,29.87,NE,39,0.0,7.0,83,0.00,,,0.00,Wunderground v.1.13,2013-08-28 14:25:00,
2013-08-28 09:30:00,73.9,68.4,29.87,NE,39,0.0,7.0,83,0.00,,,0.00,Wunderground v.1.13,2013-08-28 14:30:00,
2013-08-28 09:40:00,73.9,68.4,29.87,NE,39,0.0,2.0,83,0.00,,,0.00,Wunderground v.1.13,2013-08-28 14:40:00,
2013-08-28 09:45:00,74.0,68.5,29.87,NE,34,0.0,2.0,83,0.00,,,0.00,Wunderground v.1.13,2013-08-28 14:45:00,
2013-08-28 09:50:00,74.2,68.7,29.87,NE,34,0.0,2.0,83,0.00,,,0.00,Wunderground v.1.13,2013-08-28 14:50:00,
2013-08-28 10:00:00,74.2,68.3,29.88,NE,34,0.0,2.0,82,0.00,,,0.00,Wunderground v.1.13,2013-08-28 15:00:00,
2013-08-28 10:05:00,74.4,68.5,29.88,NE,34,0.0,1.0,82,0.00,,,0.00,Wunderground v.1.13,2013-08-28 15:05:00,
2013-08-28 10:15:00,74.4,68.5,29.88,NE,34,0.0,1.0,82,0.00,,,0.00,Wunderground v.1.13,2013-08-28 15:15:00,
2013-08-28 10:20:00,74.4,68.5,29.88,NE,35,1.0,1.0,82,0.00,,,0.00,Wunderground v.1.13,2013-08-28 15:20:00,
2013-08-28 10:30:00,74.4,68.5,29.88,NNE,13,1.0,1.0,82,0.00,,,0.00,Wunderground v.1.13,2013-08-28 15:30:00,
2013-08-28 10:35:00,74.6,68.7,29.88,NNE,13,0.0,5.0,82,0.00,,,0.00,Wunderground v.1.13,2013-08-28 15:35:00,
2013-08-28 10:45:00,75.6,69.0,29.88,NNE,17,0.0,5.0,80,0.00,,,0.00,Wunderground v.1.13,2013-08-28 15:45:00,
2013-08-28 10:55:00,76.1,69.1,29.88,NNE,12,1.0,1.0,79,0.00,,,0.00,Wunderground v.1.13,2013-08-28 15:55:00,
2013-08-28 11:00:00,76.7,68.9,29.89,North,9,0.0,5.0,77,0.00,,,0.00,Wunderground v.1.13,2013-08-28 16:00:00,
2013-08-28 11:05:00,77.2,69.4,29.89,North,9,0.0,7.0,77,0.00,,,0.00,Wunderground v.1.13,2013-08-28 16:05:00,
2013-08-28 11:15:00,77.4,68.5,29.89,NNE,23,0.0,7.0,74,0.00,,,0.00,Wunderground v.1.13,2013-08-28 16:15:00,
2013-08-28 11:20:00,77.4,68.5,29.89,North,5,1.0,1.0,74,0.00,,,0.00,Wunderground v.1.13,2013-08-28 16:20:00,
2013-08-28 11:30:00,77.4,68.5,29.90,North,5,1.0,1.0,74,0.00,,,0.00,Wunderground v.1.13,2013-08-28 16:30:00,
2013-08-28 11:40:00,77.4,68.5,29.90,North,360,1.0,7.0,74,0.00,,,0.00,Wunderground v.1.13,2013-08-28 16:40:00,
2013-08-28 11:45:00,77.4,68.1,29.90,North,351,1.0,1.0,73,0.00,,,0.00,Wunderground v.1.13,2013-08-28 16:45:00,
2013-08-28 11:55:00,78.1,68.7,29.90,North,351,0.0,7.0,73,0.00,,,0.00,Wunderground v.1.13,2013-08-28 16:55:00,
2013-08-28 12:00:00,78.1,68.3,29.90,ENE,57,1.0,1.0,72,0.00,,,0.00,Wunderground v.1.13,2013-08-28 17:00:00,
2013-08-28 12:05:00,78.3,68.9,29.90,NNW,332,1.0,7.0,73,0.00,,,0.00,Wunderground v.1.13,2013-08-28 17:05:00,
2013-08-28 12:15:00,78.5,68.7,29.90,NNW,338,1.0,7.0,72,0.00,,,0.00,Wunderground v.1.13,2013-08-28 17:15:00,
2013-08-28 12:20:00,78.5,69.1,29.90,NNW,338,1.0,1.0,73,0.00,,,0.00,Wunderground v.1.13,2013-08-28 17:20:00,
2013-08-28 12:30:00,78.5,67.1,29.90,NNE,33,1.0,1.0,68,0.00,,,0.00,Wunderground v.1.13,2013-08-28 17:30:00,
2013-08-28 12:40:00,78.8,68.2,29.90,NE,44,0.0,10.0,70,0.00,,,0.00,Wunderground v.1.13,2013-08-28 17:40:00,
2013-08-28 12:45:00,78.6,68.0,29.90,NNE,24,2.0,2.0,70,0.00,,,0.00,Wunderground v.1.13,2013-08-28 17:45:00,
2013-08-28 12:50:00,79.0,68.4,29.90,NNE,21,2.0,2.0,70,0.00,,,0.00,Wunderground v.1.13,2013-08-28 17:50:00,
2013-08-28 12:55:00,79.4,68.3,29.90,NNE,21,0.0,10.0,69,0.00,,,0.00,Wunderground v.1.13,2013-08-28 17:55:00,
2013-08-28 13:00:00,79.8,68.7,29.88,NNE,21,0.0,10.0,69,0.00,,,0.00,Wunderground v.1.13,2013-08-28 18:00:00,
2013-08-28 13:05:00,79.8,68.3,29.88,NNE,32,0.0,8.0,68,0.00,,,0.00,Wunderground v.1.13,2013-08-28 18:05:00,
2013-08-28 13:15:00,79.9,68.4,29.89,NNE,26,1.0,8.0,68,0.00,,,0.00,Wunderground v.1.13,2013-08-28 18:15:00,
2013-08-28 13:25:00,80.5,68.1,29.89,NE,38,0.0,8.0,66,0.00,,,0.00,Wunderground v.1.13,2013-08-28 18:25:00,
2013-08-28 13:30:00,80.7,68.3,29.89,NE,44,1.0,8.0,66,0.00,,,0.00,Wunderground v.1.13,2013-08-28 18:30:00,
2013-08-28 13:40:00,80.7,69.6,29.89,NNE,13,1.0,1.0,69,0.00,,,0.00,Wunderground v.1.13,2013-08-28 18:40:00,
2013-08-28 13:45:00,81.1,69.1,29.89,North,355,0.0,7.0,67,0.00,,,0.00,Wunderground v.1.13,2013-08-28 18:45:00,
2013-08-28 13:50:00,80.9,68.5,29.89,NNE,27,1.0,7.0,66,0.00,,,0.00,Wunderground v.1.13,2013-08-28 18:50:00,
2013-08-28 13:55:00,80.9,68.5,29.89,North,360,2.0,2.0,66,0.00,,,0.00,Wunderground v.1.13,2013-08-28 18:55:00,
2013-08-28 14:05:00,81.6,68.7,29.90,NE,38,2.0,2.0,65,0.00,,,0.00,Wunderground v.1.13,2013-08-28 19:05:00,
2013-08-28 14:10:00,81.8,68.4,29.90,NNW,344,1.0,7.0,64,0.00,,,0.00,Wunderground v.1.13,2013-08-28 19:10:00,
2013-08-28 14:20:00,81.6,68.7,29.89,NE,36,1.0,1.0,65,0.00,,,0.00,Wunderground v.1.13,2013-08-28 19:20:00,
2013-08-28 14:30:00,81.6,68.2,29.89,NE,45,1.0,7.0,64,0.00,,,0.00,Wunderground v.1.13,2013-08-28 19:30:00,
2013-08-28 14:40:00,82.0,69.1,29.89,NNW,344,3.0,3.0,65,0.00,,,0.00,Wunderground v.1.13,2013-08-28 19:40:00,
2013-08-28 14:45:00,82.2,69.3,29.88,NNW,344,2.0,2.0,65,0.00,,,0.00,Wunderground v.1.13,2013-08-28 19:45:00,
2013-08-28 14:55:00,83.0,69.1,29.88,WNW,294,1.0,1.0,63,0.00,,,0.00,Wunderground v.1.13,2013-08-28 19:55:00,
2013-08-28 15:00:00,83.6,69.2,29.88,WNW,293,1.0,1.0,62,0.00,,,0.00,Wunderground v.1.13,2013-08-28 20:00:00,
2013-08-28 15:05:00,84.0,69.6,29.88,West,264,0.0,10.0,62,0.00,,,0.00,Wunderground v.1.13,2013-08-28 20:05:00,
2013-08-28 15:15:00,83.0,68.6,29.89,NNE,13,2.0,2.0,62,0.00,,,0.00,Wunderground v.1.13,2013-08-28 20:15:00,
2013-08-28 15:20:00,82.8,68.4,29.89,North,355,1.0,1.0,62,0.00,,,0.00,Wunderground v.1.13,2013-08-28 20:20:00,
2013-08-28 15:30:00,84.0,69.1,29.88,NNE,23,1.0,10.0,61,0.00,,,0.00,Wunderground v.1.13,2013-08-28 20:30:00,
2013-08-28 15:40:00,84.1,68.7,29.88,NW,309,2.0,2.0,60,0.00,,,0.00,Wunderground v.1.13,2013-08-28 20:40:00,
2013-08-28 15:45:00,84.0,69.1,29.89,NW,309,1.0,9.0,61,0.00,,,0.00,Wunderground v.1.13,2013-08-28 20:45:00,
2013-08-28 15:55:00,83.4,68.1,29.89,NW,317,0.0,9.0,60,0.00,,,0.00,Wunderground v.1.13,2013-08-28 20:55:00,
2013-08-28 16:00:00,84.0,68.6,29.88,NW,317,1.0,1.0,60,0.00,,,0.00,Wunderground v.1.13,2013-08-28 21:00:00,
2013-08-28 16:05:00,84.5,68.6,29.88,NW,318,0.0,9.0,59,0.00,,,0.00,Wunderground v.1.13,2013-08-28 21:05:00,
2013-08-28 16:15:00,85.5,68.5,29.88,NW,313,2.0,9.0,57,0.00,,,0.00,Wunderground v.1.13,2013-08-28 21:15:00,
2013-08-28 16:20:00,85.5,69.5,29.88,NNE,19,1.0,9.0,59,0.00,,,0.00,Wunderground v.1.13,2013-08-28 21:20:00,
2013-08-28 16:30:00,84.5,68.6,29.89,NE,41,1.0,9.0,59,0.00,,,0.00,Wunderground v.1.13,2013-08-28 21:30:00,
2013-08-28 16:35:00,84.1,68.7,29.89,NE,40,0.0,7.0,60,0.00,,,0.00,Wunderground v.1.13,2013-08-28 21:35:00,
2013-08-28 16:40:00,84.5,68.6,29.89,NE,40,0.0,7.0,59,0.00,,,0.00,Wunderground v.1.13,2013-08-28 21:40:00,
2013-08-28 16:50:00,84.3,68.9,29.88,NNE,20,2.0,7.0,60,0.00,,,0.00,Wunderground v.1.13,2013-08-28 21:50:00,
2013-08-28 16:55:00,84.1,68.7,29.88,NE,37,2.0,2.0,60,0.00,,,0.00,Wunderground v.1.13,2013-08-28 21:55:00,
2013-08-28 17:00:00,84.0,68.1,29.88,NNE,26,1.0,1.0,59,0.00,,,0.00,Wunderground v.1.13,2013-08-28 22:00:00,
2013-08-28 17:05:00,83.8,67.9,29.88,NNE,25,0.0,8.0,59,0.00,,,0.00,Wunderground v.1.13,2013-08-28 22:05:00,
2013-08-28 17:20:00,83.4,69.5,29.88,NNE,16,2.0,2.0,63,0.00,,,0.00,Wunderground v.1.13,2013-08-28 22:20:00,
2013-08-28 17:30:00,83.2,69.3,29.89,NNW,344,4.0,8.0,63,0.00,,,0.00,Wunderground v.1.13,2013-08-28 22:30:00,
2013-08-28 17:35:00,83.0,69.1,29.89,NNW,344,3.0,3.0,63,0.00,,,0.00,Wunderground v.1.13,2013-08-28 22:35:00,
2013-08-28 17:40:00,82.8,69.4,29.89,NNE,31,1.0,1.0,64,0.00,,,0.00,Wunderground v.1.13,2013-08-28 22:40:00,
2013-08-28 17:50:00,82.8,69.4,29.89,North,355,0.0,8.0,64,0.00,,,0.00,Wunderground v.1.13,2013-08-28 22:50:00,
2013-08-28 17:55:00,82.8,69.4,29.89,North,360,1.0,1.0,64,0.00,,,0.00,Wunderground v.1.13,2013-08-28 22:55:00,
2013-08-28 18:05:00,82.8,69.8,29.89,North,349,2.0,2.0,65,0.00,,,0.00,Wunderground v.1.13,2013-08-28 23:05:00,
2013-08-28 18:15:00,82.4,69.9,29.90,NNW,344,1.0,1.0,66,0.00,,,0.00,Wunderground v.1.13,2013-08-28 23:15:00,
2013-08-28 18:20:00,82.2,70.1,29.90,NNW,347,2.0,2.0,67,0.00,,,0.00,Wunderground v.1.13,2013-08-28 23:20:00,
2013-08-28 18:25:00,82.0,70.4,29.90,North,355,2.0,9.0,68,0.00,,,0.00,Wunderground v.1.13,2013-08-28 23:25:00,
2013-08-28 18:35:00,81.8,70.2,29.90,NNW,348,1.0,1.0,68,0.00,,,0.00,Wunderground v.1.13,2013-08-28 23:35:00,
2013-08-28 18:40:00,81.8,70.6,29.90,NNW,348,0.0,7.0,69,0.00,,,0.00,Wunderground v.1.13,2013-08-28 23:40:00,
2013-08-28 18:45:00,81.4,70.2,29.90,North,349,0.0,7.0,69,0.00,,,0.00,Wunderground v.1.13,2013-08-28 23:45:00,
2013-08-28 18:50:00,80.9,70.2,29.90,North,349,1.0,7.0,70,0.00,,,0.00,Wunderground v.1.13,2013-08-28 23:50:00,
2013-08-28 19:00:00,80.3,70.0,29.90,North,349,1.0,1.0,71,0.00,,,0.00,Wunderground v.1.13,2013-08-29 00:00:00,
2013-08-28 19:05:00,80.1,70.3,29.90,North,349,0.0,8.0,72,0.00,,,0.00,Wunderground v.1.13,2013-08-29 00:05:00,
2013-08-28 19:15:00,79.4,70.4,29.90,North,350,0.0,8.0,74,0.00,,,0.00,Wunderground v.1.13,2013-08-29 00:15:00,
2013-08-28 19:25:00,78.6,70.0,29.90,North,351,0.0,8.0,75,0.00,,,0.00,Wunderground v.1.13,2013-08-29 00:25:00,
2013-08-28 19:30:00,78.5,69.9,29.91,North,351,0.0,8.0,75,0.00,,,0.00,Wunderground v.1.13,2013-08-29 00:30:00,
2013-08-28 19:35:00,78.3,70.1,29.91,North,360,0.0,7.0,76,0.00,,,0.00,Wunderground v.1.13,2013-08-29 00:35:00,
2013-08-28 19:40:00,77.9,69.7,29.91,North,360,0.0,7.0,76,0.00,,,0.00,Wunderground v.1.13,2013-08-29 00:40:00,
2013-08-28 19:45:00,77.7,69.1,29.91,North,360,0.0,7.0,75,0.00,,,0.00,Wunderground v.1.13,2013-08-29 00:45:00,
2013-08-28 19:55:00,77.0,68.1,29.91,North,360,0.0,7.0,74,0.00,,,0.00,Wunderground v.1.13,2013-08-29 00:55:00,
2013-08-28 20:05:00,76.3,66.2,29.92,North,360,0.0,6.0,71,0.00,,,0.00,Wunderground v.1.13,2013-08-29 01:05:00,
2013-08-28 20:15:00,76.1,66.4,29.92,North,360,0.0,6.0,72,0.00,,,0.00,Wunderground v.1.13,2013-08-29 01:15:00,
2013-08-28 20:20:00,75.8,66.1,29.92,North,360,0.0,6.0,72,0.00,,,0.00,Wunderground v.1.13,2013-08-29 01:20:00,
2013-08-28 20:25:00,75.4,65.7,29.92,North,360,0.0,6.0,72,0.00,,,0.00,Wunderground v.1.13,2013-08-29 01:25:00,
2013-08-28 20:30:00,75.3,66.4,29.93,North,360,0.0,6.0,74,0.00,,,0.00,Wunderground v.1.13,2013-08-29 01:30:00,
2013-08-28 20:35:00,75.1,66.2,29.93,North,360,0.0,0.0,74,0.00,,,0.00,Wunderground v.1.13,2013-08-29 01:35:00,
2013-08-28 20:45:00,74.7,66.2,29.93,North,360,0.0,0.0,75,0.00,,,0.00,Wunderground v.1.13,2013-08-29 01:45:00,
2013-08-28 20:50:00,74.6,65.8,29.93,North,360,0.0,0.0,74,0.00,,,0.00,Wunderground v.1.13,2013-08-29 01:50:00,
2013-08-28 21:00:00,74.0,65.6,29.93,North,360,0.0,0.0,75,0.00,,,0.00,Wunderground v.1.13,2013-08-29 02:00:00,
2013-08-28 21:05:00,73.7,65.7,29.93,North,360,0.0,0.0,76,0.00,,,0.00,Wunderground v.1.13,2013-08-29 02:05:00,
2013-08-28 21:15:00,73.0,65.4,29.94,North,360,0.0,0.0,77,0.00,,,0.00,Wunderground v.1.13,2013-08-29 02:15:00,
2013-08-28 21:20:00,72.7,65.4,29.94,North,360,0.0,0.0,78,0.00,,,0.00,Wunderground v.1.13,2013-08-29 02:20:00,
2013-08-28 21:25:00,72.5,65.2,29.94,North,360,0.0,0.0,78,0.00,,,0.00,Wunderground v.1.13,2013-08-29 02:25:00,
2013-08-28 21:35:00,72.1,64.9,29.94,North,360,0.0,0.0,78,0.00,,,0.00,Wunderground v.1.13,2013-08-29 02:35:00,
2013-08-28 21:45:00,71.6,64.7,29.94,North,360,0.0,0.0,79,0.00,,,0.00,Wunderground v.1.13,2013-08-29 02:45:00,
2013-08-28 21:50:00,71.3,64.8,29.94,North,360,0.0,0.0,80,0.00,,,0.00,Wunderground v.1.13,2013-08-29 02:50:00,
2013-08-28 22:00:00,71.1,65.3,29.95,North,360,0.0,0.0,82,0.00,,,0.00,Wunderground v.1.13,2013-08-29 03:00:00,
2013-08-28 22:05:00,70.9,65.1,29.95,North,360,0.0,0.0,82,0.00,,,0.00,Wunderground v.1.13,2013-08-29 03:05:00,
2013-08-28 22:15:00,70.4,65.0,29.95,North,360,0.0,0.0,83,0.00,,,0.00,Wunderground v.1.13,2013-08-29 03:15:00,
2013-08-28 22:20:00,70.3,65.2,29.95,North,360,0.0,0.0,84,0.00,,,0.00,Wunderground v.1.13,2013-08-29 03:20:00,
2013-08-28 22:25:00,70.1,65.4,29.95,North,360,0.0,0.0,85,0.00,,,0.00,Wunderground v.1.13,2013-08-29 03:25:00,
2013-08-28 22:30:00,69.9,65.5,29.95,North,360,0.0,0.0,86,0.00,,,0.00,Wunderground v.1.13,2013-08-29 03:30:00,
2013-08-28 22:35:00,69.8,65.4,29.95,North,360,0.0,0.0,86,0.00,,,0.00,Wunderground v.1.13,2013-08-29 03:35:00,
2013-08-28 22:45:00,69.4,65.4,29.95,North,360,0.0,0.0,87,0.00,,,0.00,Wunderground v.1.13,2013-08-29 03:45:00,
2013-08-28 22:50:00,69.3,65.6,29.95,North,360,0.0,0.0,88,0.00,,,0.00,Wunderground v.1.13,2013-08-29 03:50:00,
2013-08-28 23:00:00,68.9,65.5,29.94,North,360,0.0,0.0,89,0.00,,,0.00,Wunderground v.1.13,2013-08-29 04:00:00,
2013-08-28 23:05:00,68.8,65.4,29.94,North,360,0.0,0.0,89,0.00,,,0.00,Wunderground v.1.13,2013-08-29 04:05:00,
2013-08-28 23:10:00,68.6,65.5,29.94,North,360,0.0,0.0,90,0.00,,,0.00,Wunderground v.1.13,2013-08-29 04:10:00,
2013-08-28 23:15:00,68.4,65.4,29.94,North,360,0.0,0.0,90,0.00,,,0.00,Wunderground v.1.13,2013-08-29 04:15:00,
2013-08-28 23:20:00,68.3,65.3,29.94,North,360,0.0,0.0,90,0.00,,,0.00,Wunderground v.1.13,2013-08-29 04:20:00,
2013-08-28 23:25:00,68.3,65.6,29.94,North,360,0.0,0.0,91,0.00,,,0.00,Wunderground v.1.13,2013-08-29 04:25:00,
2013-08-28 23:30:00,68.3,65.6,29.94,North,360,0.0,0.0,91,0.00,,,0.00,Wunderground v.1.13,2013-08-29 04:30:00,
2013-08-28 23:35:00,68.1,65.4,29.94,North,360,0.0,0.0,91,0.00,,,0.00,Wunderground v.1.13,2013-08-29 04:35:00,
2013-08-28 23:40:00,67.9,65.2,29.94,North,360,0.0,0.0,91,0.00,,,0.00,Wunderground v.1.13,2013-08-29 04:40:00,
2013-08-28 23:45:00,67.8,65.4,29.94,North,360,0.0,0.0,92,0.00,,,0.00,Wunderground v.1.13,2013-08-29 04:45:00,
2013-08-28 23:55:00,67.6,65.2,29.94,North,360,0.0,0.0,92,0.00,,,0.00,Wunderground v.1.13,2013-08-29 04:55:00,